Location: Middelsbur
(53.6609°N, 7.5020°E)
Time: 12:45:56
(UTC+00:00)

Cosmos 2322 Rocket - Pass Details

Date: 06 July 2020
Orbit: 832 x 851 km, 71.0° (Epoch: 07 August)

Event Time Altitude Azimuth Distance (km) Brightness Sun altitude
Rises 21:24:38 0° 244° (WSW) 3,374 5.4 -8.7°
Reaches altitude 10° 21:27:18 10° 254° (WSW) 2,444 4.8 -8.9°
Maximum altitude 21:32:22 34° 318° (NW) 1,350 4.1 -9.3°
Drops below altitude 10° 21:37:29 10° 23° (NNE) 2,462 5.2 -9.7°
Sets 21:40:11 0° 33° (NNE) 3,403 5.8 -9.8°
